Location: Dittelspoint
(48.7198°N, 10.7214°E)
Time: 02:05:16
(UTC+00:00)

ARGOS - Pass Details

Date: 09 April 2020
Orbit: 821 x 834 km, 98.5° (Epoch: 04 June)

Event Time Altitude Azimuth Distance (km) Brightness Sun altitude
Rises 19:22:45 0° 181° (S) 3,357 6.0 -13.5°
Reaches altitude 10° 19:25:11 10° 187° (S) 2,426 5.4 -13.8°
Maximum altitude 19:30:22 48° 261° (W) 1,078 4.1 -14.6°
Drops below altitude 10° 19:35:34 10° 335° (NNW) 2,435 6.5 -15.3°
Sets 19:38:01 0° 342° (NNW) 3,371 7.2 -15.6°
